Location: Courçay
(47.2523°N, 0.8761°E)
Time: 07:29:28
(UTC+00:00)

Cosmos 1400 Rocket - Pass Details

Date: 18 November 2025
Orbit: 477 x 514 km, 81.1° (Epoch: 06 December)

Event Time Altitude Azimuth Distance (km) Brightness Sun altitude
Rises 18:38:21 0° 205° (SSW) 2,617 6.7 -23.6°
Reaches altitude 10° 18:40:33 10° 212° (SSW) 1,732 5.8 -24.0°
Maximum altitude 18:44:13 44° 285° (WNW) 712 3.7 -24.6°
Enters shadow 18:45:25 33° 332° (NNW) 881 4.0 -24.8°
